Location: Newark
(37.8333°N, 119.5000°W)
Time: 07:35:37
(UTC+00:00)

Tiros 1 despin weight - All Passes

Search period start: 19 August 2019 00:00
Search period end: 29 August 2019 00:00
Orbit: 594 x 642 km, 48.2° (Epoch: 18 August)

Date Brightness Start Highest point End Pass type
(mag) Time Alt. Az. Time Alt. Az. Time Alt. Az.
19 Aug - 07:33:56 10° SSW 07:38:01 37° SE 07:42:10 10° ENE night (unlit)
19 Aug - 09:15:13 10° W 09:19:31 45° NNW 09:23:54 10° NE visible
19 Aug - 10:58:18 10° WNW 11:01:55 23° N 11:05:33 10° NE visible
19 Aug - 12:40:36 10° NW 12:44:33 27° NNE 12:48:32 10° ENE visible
19 Aug - 14:21:59 10° NW 14:26:36 82° NNE 14:31:17 10° ESE daylight
19 Aug - 16:04:33 10° W 16:07:46 19° SW 16:10:59 10° S daylight
20 Aug - 06:12:00 10° SSE 06:13:36 12° SE 06:15:12 10° ESE night (unlit)
20 Aug - 07:50:05 10° SW 07:54:30 75° SE 07:59:01 10° ENE night (unlit)
20 Aug - 09:32:23 10° W 09:36:24 31° NNW 09:40:27 10° NE visible
20 Aug - 11:15:25 10° NW 11:18:58 22° N 11:22:34 10° NE visible
20 Aug - 12:57:11 10° NW 13:01:28 37° NNE 13:05:47 10° E daylight
20 Aug - 14:38:41 10° WNW 14:43:11 54° SW 14:47:44 10° SE daylight
21 Aug - 06:26:16 10° S 06:29:52 25° SE 06:33:31 10° E night (unlit)
21 Aug - 08:06:45 10° WSW 08:11:09 61° NNW 08:15:37 10° NE visible
21 Aug - 09:49:40 10° WNW 09:53:22 24° N 09:57:07 10° NE visible
21 Aug - 11:32:17 10° NW 11:36:01 24° N 11:39:47 10° ENE visible
21 Aug - 13:13:43 10° NW 13:18:15 59° NNE 13:22:51 10° ESE daylight
21 Aug - 14:55:42 10° WNW 14:59:37 27° SW 15:03:33 10° SSE daylight
22 Aug - 06:42:00 10° SW 06:46:16 50° SE 06:50:37 10° ENE night (unlit)
22 Aug - 08:23:47 10° W 08:27:56 38° NNW 08:32:10 10° NE visible
22 Aug - 10:06:54 10° NW 10:10:25 22° N 10:13:59 10° NE visible
22 Aug - 11:48:56 10° NW 11:53:00 31° NNE 11:57:06 10° E visible
22 Aug - 13:30:19 10° WNW 13:34:55 79° SW 13:39:34 10° SE daylight
22 Aug - 15:13:40 10° W 15:15:55 13° SW 15:18:11 10° SSW daylight
23 Aug - 05:19:00 10° S 05:21:46 16° SE 05:24:32 10° E night (unlit)
23 Aug - 06:58:24 10° WSW 07:02:50 85° NNW 07:07:20 10° NE night (unlit)
23 Aug - 08:41:01 10° WNW 08:44:52 27° NNW 08:48:45 10° NE visible
23 Aug - 10:23:54 10° NW 10:27:28 22° N 10:31:06 10° ENE visible
23 Aug - 12:05:29 10° NW 12:09:52 44° NNE 12:14:18 10° E visible
23 Aug - 13:47:07 10° WNW 13:51:25 40° SW 13:55:46 10° SSE daylight
24 Aug - 05:34:08 10° SSW 05:38:05 33° SE 05:42:06 10° ENE night (unlit)
24 Aug - 07:15:14 10° WSW 07:19:32 48° NNW 07:23:54 10° NE night (unlit)
24 Aug - 08:58:18 10° WNW 09:01:52 23° N 09:05:28 10° NE visible
24 Aug - 10:40:40 10° NW 10:44:30 26° NNE 10:48:22 10° ENE visible
24 Aug - 12:22:02 10° NW 12:26:36 75° NNE 12:31:13 10° ESE visible
24 Aug - 14:04:25 10° W 14:07:48 20° SW 14:11:13 10° S daylight
25 Aug - 04:13:14 10° SE 04:13:42 10° SE 04:14:10 10° ESE night (unlit)
25 Aug - 05:50:11 10° SW 05:54:34 67° SE 05:58:59 10° ENE night (unlit)
25 Aug - 07:32:22 10° W 07:36:22 32° NNW 07:40:26 10° NE night (unlit)
25 Aug - 09:15:26 10° NW 09:18:55 21° N 09:22:26 10° NE visible
25 Aug - 10:57:15 10° NW 11:01:25 35° NNE 11:05:39 10° E visible
25 Aug - 12:38:41 10° WNW 12:43:11 59° SW 12:47:44 10° SE visible
26 Aug - 04:26:33 10° S 04:29:57 22° SE 04:33:23 10° E visible
26 Aug - 06:06:47 10° WSW 06:11:10 66° NNW 06:15:37 10° NE night (unlit)
26 Aug - 07:49:39 10° WNW 07:53:20 25° NNW 07:57:03 10° NE night (unlit)
26 Aug - 09:32:20 10° NW 09:35:58 23° N 09:39:39 10° ENE visible
26 Aug - 11:13:47 10° NW 11:18:14 54° NNE 11:22:45 10° ESE visible
26 Aug - 12:55:39 10° WNW 12:59:38 30° SW 13:03:40 10° SSE visible
27 Aug - 04:42:09 10° SSW 04:46:20 45° SE 04:50:34 10° ENE visible
27 Aug - 06:23:46 10° W 06:27:56 40° NNW 06:32:09 10° NE night (unlit)
27 Aug - 08:06:54 10° NW 08:10:22 22° N 08:13:52 10° NE night (unlit)
27 Aug - 09:49:01 10° NW 09:52:58 29° NNE 09:56:57 10° ENE visible
27 Aug - 11:30:21 10° WNW 11:34:54 86° SW 11:39:31 10° SE visible
27 Aug - 13:13:23 10° W 13:15:58 15° SW 13:18:33 10° SSW daylight
28 Aug - 03:19:27 10° SSE 03:21:52 14° SE 03:24:16 10° E visible
28 Aug - 04:58:27 10° SW 05:02:52 88° SE 05:07:20 10° ENE visible
28 Aug - 06:40:59 10° WNW 06:44:50 28° NNW 06:48:43 10° NE night (unlit)
28 Aug - 08:23:56 10° NW 08:27:25 22° N 08:30:57 10° NE night (unlit)
28 Aug - 10:05:33 10° NW 10:09:50 41° NNE 10:14:10 10° E visible
28 Aug - 11:47:07 10° WNW 11:51:26 44° SW 11:55:48 10° SSE visible
